Date,TemperatureHighF,TemperatureAvgF,TemperatureLowF,DewpointHighF,DewpointAvgF,DewpointLowF,HumidityHigh,HumidityAvg,HumidityLow,PressureMaxIn,PressureMinIn,WindSpeedMaxMPH,WindSpeedAvgMPH,GustSpeedMaxMPH,PrecipitationSumIn
2013-1-1,38,32,23,37,28,19,95,87,79,30.32,30.07,7,1,16,0.00
2013-1-2,42,26,18,28,21,16,91,83,59,30.32,29.49,4,0,11,0.01
2013-1-3,53,35,22,31,24,20,92,68,33,30.48,29.73,7,1,10,0.00
2013-1-4,53,36,21,27,23,18,91,63,30,30.48,30.33,9,2,16,0.00
2013-1-5,53,41,31,34,30,24,89,65,42,30.34,30.18,12,3,21,0.00
2013-1-6,58,36,24,30,22,16,89,62,19,30.40,30.29,4,1,7,0.00
2013-1-7,57,39,23,29,25,19,85,58,32,30.37,30.12,14,3,21,0.00
2013-1-8,60,46,35,45,35,25,93,65,39,30.21,30.05,10,3,18,0.30
2013-1-9,55,50,46,47,44,39,95,80,55,30.34,30.17,8,3,17,0.06
2013-1-10,58,52,49,55,49,43,95,89,73,30.17,29.82,7,3,14,0.20
2013-1-11,73,66,61,50,46,44,63,50,35,29.83,29.69,12,6,25,0.20
2013-1-12,61,40,26,51,29,20,89,66,24,30.13,29.83,9,3,23,0.20
2013-1-13,38,27,20,20,15,11,79,63,39,30.41,30.03,0,0,0,0.04
2013-1-14,41,28,18,18,14,11,83,59,31,30.50,30.34,8,1,13,0.02
2013-1-15,37,28,20,21,15,10,84,60,34,30.35,30.21,6,2,17,0.00
2013-1-16,54,33,18,22,16,11,87,56,20,30.24,30.12,9,2,12,0.00
2013-1-17,60,42,27,32,27,19,78,59,28,30.50,30.22,9,2,17,0.00
2013-1-18,61,46,29,33,29,25,85,55,27,30.51,30.20,14,5,23,0.00
2013-1-19,71,52,41,36,34,31,76,52,23,30.22,30.09,11,4,18,0.00
2013-1-20,72,51,33,41,31,16,77,46,30,30.32,30.12,11,3,24,0.00
2013-1-21,48,34,25,17,14,9,61,45,22,30.44,30.30,8,3,24,0.00
2013-1-22,59,39,24,28,22,16,74,52,29,30.34,30.18,11,3,16,0.00
2013-1-23,68,47,29,43,34,24,81,62,37,30.27,30.13,8,2,12,0.00
2013-1-24,48,40,36,38,23,18,69,49,40,30.30,30.12,9,3,19,0.00
2013-1-25,56,43,33,30,26,22,66,52,31,30.26,30.14,4,1,10,0.00
2013-1-26,56,46,33,35,30,26,77,54,37,30.27,30.09,11,4,18,0.00
2013-1-27,62,55,46,57,50,34,94,84,61,30.11,29.89,15,6,24,0.00
2013-1-28,76,69,59,63,61,56,89,77,61,29.95,29.77,17,7,25,0.00
2013-1-29,72,59,42,63,54,37,95,84,60,29.77,29.46,16,5,25,0.92
2013-1-30,44,38,27,38,27,22,86,67,45,30.09,29.62,13,5,27,0.00
2013-1-31,58,35,23,28,21,9,87,59,29,30.48,30.03,12,3,24,0.00
2013-2-1,49,31,18,22,11,0,64,44,23,30.49,30.17,11,3,17,0.00
2013-2-2,64,44,27,32,27,21,80,55,25,30.30,30.18,8,1,14,0.00
2013-2-3,61,49,33,30,25,18,77,43,20,30.33,29.52,9,2,15,0.00
2013-2-4,74,59,45,40,32,24,64,38,16,29.99,29.83,8,4,15,0.00
2013-2-5,76,52,33,42,32,22,80,53,14,30.06,29.93,4,1,10,0.00
2013-2-6,67,54,40,51,40,32,75,60,46,30.07,29.91,13,4,22,0.00
2013-2-7,62,53,44,54,46,36,86,77,68,30.17,29.85,10,4,21,0.01
2013-2-8,58,43,35,36,32,29,80,66,37,30.35,30.17,8,2,14,0.00
2013-2-9,45,42,39,41,35,32,88,76,64,30.18,29.76,14,6,24,0.06
2013-2-10,65,54,44,47,30,18,93,46,18,30.08,29.65,14,5,23,0.17
2013-2-11,60,44,31,36,24,17,79,49,20,30.25,29.85,9,2,16,0.17
2013-2-12,43,38,0,35,30,25,91,70,54,30.14,29.97,6,2,13,0.20
2013-2-13,59,43,34,37,33,28,92,71,30,30.07,29.22,11,3,14,0.01
2013-2-14,66,48,32,34,30,25,81,51,27,30.23,29.24,10,2,19,0.00
2013-2-15,50,39,30,31,17,2,71,45,15,30.43,30.23,9,3,21,0.00
2013-2-16,49,38,26,27,15,6,73,41,20,30.41,30.09,11,3,19,0.00
2013-2-17,72,54,37,33,27,20,65,39,16,30.09,29.79,17,6,29,0.00
2013-2-18,63,56,40,50,37,24,69,51,33,30.17,29.66,19,8,34,0.00
2013-2-19,60,43,28,25,21,16,77,45,19,30.38,30.17,8,2,12,0.00
2013-2-20,41,36,32,32,27,19,91,74,44,30.30,30.02,10,3,17,0.24
2013-2-21,36,34,27,34,30,19,95,89,71,30.02,29.69,11,4,21,0.73
2013-2-22,44,31,21,36,19,16,80,61,36,30.17,29.60,9,2,18,1.16
2013-2-23,54,35,22,26,20,16,80,56,26,29.90,29.72,7,1,9,0.00
2013-2-24,62,47,33,38,31,23,71,55,39,29.74,29.52,16,5,27,0.00
2013-2-25,48,40,33,37,34,31,94,82,60,29.59,29.25,12,4,24,1.16
2013-2-26,43,38,33,33,31,28,93,78,64,29.69,29.27,12,4,25,0.33
2013-2-27,51,38,30,31,27,23,87,67,36,29.93,29.68,14,4,23,0.00
2013-2-28,51,43,36,31,27,24,64,53,35,30.00,29.81,11,5,22,0.00
2013-3-1,42,36,32,26,23,16,66,58,45,30.11,29.98,10,4,21,0.00
2013-3-2,54,38,27,22,18,1,69,46,12,30.16,29.95,10,3,16,0.00
2013-3-3,66,49,34,33,25,19,61,41,21,29.95,29.45,14,6,24,0.00
2013-3-4,80,60,46,42,37,32,65,45,19,29.74,29.33,17,4,27,0.00
2013-3-5,53,43,36,36,22,15,83,46,22,30.15,29.74,16,6,28,0.08
2013-3-6,36,33,31,22,20,18,61,57,54,30.18,30.14,5,2,9,0.00
2013-3-8,59,59,58,40,38,34,50,45,42,30.06,29.99,78,10,78,0.02
2013-3-9,64,59,55,58,49,35,94,70,40,29.99,29.67,27,9,27,0.44
2013-3-10,58,45,33,53,39,23,91,78,63,30.07,29.64,21,7,21,151.30
2013-3-11,58,40,29,25,19,3,76,48,11,30.07,29.98,17,6,19,0.00
2013-3-12,65,49,38,37,26,19,67,42,18,30.37,30.06,17,4,17,0.00
2013-3-13,43,43,43,23,21,21,44,42,42,30.37,30.37,5,3,5,0.00
2013-3-14,43,41,40,34,33,33,77,73,69,30.15,30.11,14,10,14,0.00
2013-3-15,42,41,41,36,35,34,81,77,73,30.09,29.91,15,10,15,0.04
2013-3-16,78,64,35,50,44,25,79,49,33,29.99,29.77,12,5,25,0.02
2013-3-17,50,46,44,41,38,37,89,73,65,29.87,29.74,9,4,20,0.00
2013-3-18,45,43,40,42,39,27,92,86,53,30.06,29.71,7,2,18,0.00
2013-3-19,63,50,38,29,26,18,68,42,23,30.27,30.03,11,3,18,0.00
2013-3-20,58,46,35,33,24,14,82,47,18,30.42,30.09,8,3,16,0.00
2013-3-21,44,41,38,34,26,18,82,57,35,30.09,29.75,14,6,24,0.03
2013-3-22,49,43,37,38,36,34,93,78,62,29.93,29.80,7,3,12,0.33
2013-3-23,44,42,38,41,38,35,94,89,79,29.92,29.73,8,2,14,0.04
2013-3-24,43,36,32,36,26,18,93,67,38,30.19,29.77,15,6,24,0.02
2013-3-25,43,35,29,22,19,14,71,54,36,30.40,30.18,11,4,21,0.00
2013-3-26,56,40,22,24,19,14,84,48,19,30.47,30.28,6,2,10,0.00
2013-3-27,69,52,36,32,25,22,58,37,19,30.29,30.07,15,5,21,0.00
2013-3-28,76,62,49,51,41,27,60,47,32,30.19,30.05,10,5,17,0.00
2013-3-29,74,64,54,58,54,49,90,72,55,30.14,30.05,11,4,17,0.07
2013-3-30,79,66,55,60,56,51,92,71,50,30.07,29.82,10,4,18,0.25
2013-3-31,76,62,53,58,48,39,93,64,28,30.00,29.87,10,2,21,0.00
2013-4-1,64,52,46,44,40,30,84,64,42,30.16,29.98,11,3,21,0.37
2013-4-2,46,41,39,39,36,29,92,81,53,30.24,30.15,10,4,19,0.49
2013-4-3,44,42,40,39,34,29,93,76,57,30.24,30.16,7,2,13,0.47
2013-4-4,66,54,40,42,36,31,93,52,28,30.19,30.08,6,1,12,0.23
2013-4-5,73,56,37,44,40,35,93,58,26,30.21,29.95,10,3,15,0.00
2013-4-6,79,66,57,51,47,41,67,52,32,29.95,29.78,19,6,30,0.00
2013-4-8,74,73,72,61,60,60,65,64,62,29.68,29.65,11,6,18,0.00
2013-4-9,80,73,48,65,60,41,77,66,54,29.83,29.64,12,6,27,0.01
2013-4-10,48,39,36,41,35,30,90,85,77,29.98,29.79,11,5,20,0.41
2013-4-11,58,45,34,35,28,24,77,56,31,29.96,29.77,9,4,17,0.00
2013-4-12,67,52,38,35,30,26,84,48,22,30.03,29.83,9,2,17,0.00
2013-4-13,77,62,48,48,43,33,87,50,29,30.06,29.73,14,4,19,0.20
2013-4-14,83,71,59,58,51,43,64,50,32,29.74,29.49,15,5,23,0.00
2013-4-15,80,64,54,57,44,33,68,49,32,29.87,29.69,12,4,21,0.00
2013-4-16,63,55,51,51,46,42,85,74,64,29.99,29.83,8,3,14,0.00
2013-4-17,84,70,52,69,60,47,94,74,54,29.93,29.55,18,5,30,0.13
2013-4-18,66,47,42,65,38,25,96,72,51,30.10,29.51,14,6,24,1.12
2013-4-19,66,52,35,37,26,14,69,40,16,30.17,30.03,11,4,19,0.00
2013-4-20,74,58,42,40,34,20,79,45,14,30.16,30.01,11,3,22,0.00
2013-4-21,72,64,55,45,40,34,65,42,25,30.21,30.08,12,4,23,0.00
2013-4-22,79,65,51,52,45,41,69,50,35,30.14,29.84,14,5,24,0.00
2013-4-23,69,46,37,55,41,32,92,84,50,30.22,29.81,9,4,18,0.17
2013-4-24,62,48,34,34,27,20,84,50,21,30.32,30.19,8,2,15,0.00
2013-4-25,73,58,35,38,29,16,85,40,12,30.37,30.16,11,2,18,0.00
2013-4-26,63,60,54,49,42,37,82,53,38,30.19,30.10,11,4,16,0.08
2013-4-27,56,56,56,51,50,50,82,80,79,30.06,30.04,1,0,3,0.00
2013-4-28,56,56,56,50,50,49,82,80,79,30.05,30.03,2,0,4,0.00
2013-4-29,90,83,74,57,53,48,54,36,28,29.77,29.71,15,6,23,0.00
2013-4-30,87,76,64,60,54,45,75,49,24,29.82,29.73,14,5,28,0.00
2013-5-1,85,73,65,64,60,52,81,66,46,29.95,29.81,10,4,16,0.00
2013-5-2,65,46,37,50,40,35,92,79,58,30.26,29.96,11,5,11,0.15
2013-5-3,63,56,43,35,26,21,73,34,21,30.11,29.86,15,5,21,0.00
2013-5-4,50,46,41,45,39,32,91,80,53,29.93,29.79,8,2,8,0.13
2013-5-5,63,52,44,50,46,41,93,80,61,30.03,29.93,8,2,8,0.01
2013-5-6,73,57,45,54,50,43,97,79,44,30.02,29.89,5,1,8,0.00
2013-5-7,82,66,48,56,50,42,96,63,26,29.98,29.83,8,2,8,0.00
2013-5-8,86,73,62,63,54,47,89,52,33,29.90,29.74,12,4,12,0.05
2013-5-9,75,66,59,66,62,57,97,87,63,29.88,29.74,11,2,11,0.45
2013-5-10,78,67,57,65,58,52,98,75,47,29.96,29.80,7,2,7,0.07
2013-5-11,83,65,50,67,49,27,96,61,18,30.12,29.96,8,2,8,0.12
2013-5-12,78,63,44,45,38,28,85,45,18,30.26,30.11,9,2,9,0.00
2013-5-13,91,74,58,60,49,42,61,43,24,30.14,30.01,9,3,10,0.00
2013-5-14,92,79,64,57,52,48,62,41,26,30.06,29.92,13,4,13,0.00
2013-5-15,76,71,64,68,63,52,97,76,46,29.98,29.82,10,4,10,0.55
2013-5-16,80,69,63,68,63,61,96,84,58,29.89,29.80,6,2,6,0.16
2013-5-17,84,72,62,70,66,61,98,81,60,29.93,29.85,8,2,11,0.00
2013-5-18,89,79,72,75,72,69,93,80,60,29.88,29.74,11,4,11,0.00
2013-5-19,83,81,77,71,69,67,76,67,62,29.71,29.57,16,6,16,0.00
2013-5-20,85,77,73,73,69,66,85,77,65,29.77,29.63,15,4,15,0.00
2013-5-21,72,64,57,67,60,55,96,87,74,29.90,29.64,13,2,13,0.48
2013-5-22,83,69,55,60,56,53,98,68,37,29.93,29.80,6,1,6,0.00
2013-5-23,68,63,60,62,59,55,97,88,69,30.14,29.92,7,1,7,0.26
2013-5-24,80,70,59,66,62,57,98,76,60,30.21,30.10,9,4,9,0.01
2013-5-25,85,75,65,70,64,57,82,68,53,30.19,30.01,10,4,11,0.00
2013-5-26,86,77,69,71,68,65,88,74,56,30.08,29.92,11,4,16,0.00
2013-5-27,80,79,78,69,68,68,71,70,68,29.78,29.73,9,6,9,0.00
2013-5-28,83,79,74,69,67,66,80,68,59,29.81,29.72,15,7,15,0.00
2013-5-29,80,76,67,69,67,62,93,75,67,29.83,29.68,12,5,12,0.20
2013-5-30,84,73,65,73,68,64,98,86,67,29.78,29.63,15,5,15,1.07
2013-5-31,88,81,73,75,72,70,94,75,60,29.77,29.59,14,5,18,0.01
2013-6-1,84,73,65,71,61,52,96,70,34,30.02,29.66,11,2,11,0.07
2013-6-2,77,67,60,58,55,52,86,66,48,30.09,30.00,7,2,7,0.00
2013-6-3,82,70,56,66,59,53,93,70,48,30.04,29.85,8,3,8,0.45
2013-6-4,85,75,66,69,66,62,96,74,53,29.99,29.78,11,3,11,0.40
2013-6-5,75,71,66,68,66,64,98,86,76,29.99,29.85,7,2,7,0.67
2013-6-6,82,73,61,66,59,51,91,65,38,29.97,29.91,7,2,8,0.00
2013-6-7,87,73,57,61,56,52,95,60,32,30.01,29.91,4,1,10,1.15
2013-6-8,85,75,62,64,59,55,82,58,39,29.94,29.79,10,3,10,0.00
2013-6-9,92,80,66,66,60,52,87,54,27,29.91,29.79,9,2,9,0.00
2013-6-10,96,84,72,70,66,58,78,56,34,29.93,29.84,11,3,11,0.00
2013-6-11,95,86,75,72,69,65,75,58,39,29.97,29.87,13,5,13,0.00
2013-6-12,95,86,78,74,70,67,81,61,41,29.97,29.88,15,6,15,0.00
2013-6-13,98,86,76,73,70,68,86,60,39,30.03,29.92,6,2,6,0.00
2013-6-14,96,84,77,76,72,68,78,67,50,30.00,29.93,8,2,11,0.00
2013-6-15,88,80,74,76,73,69,91,80,63,30.01,29.93,9,3,21,0.04
2013-6-16,95,79,69,78,72,66,96,81,50,30.00,29.88,8,2,10,0.76
2013-6-17,84,74,68,72,68,66,99,82,59,30.01,29.83,12,2,12,0.60
2013-6-18,91,78,66,70,66,59,98,70,37,30.04,29.93,6,2,6,0.00
2013-6-19,88,79,66,70,68,64,95,70,51,30.04,29.93,10,2,10,0.00
2013-6-20,94,84,74,76,72,67,81,68,54,30.02,29.91,13,4,20,0.00
2013-6-21,95,85,78,74,71,66,83,64,39,30.04,29.95,11,4,11,0.00
2013-6-22,93,85,76,73,70,65,83,62,42,30.01,29.87,11,4,11,0.00
2013-6-23,94,85,78,73,70,68,81,62,44,29.94,29.86,11,6,13,0.00
2013-6-24,93,85,77,73,70,65,82,62,43,30.02,29.89,11,5,20,0.00
2013-6-25,90,84,78,74,72,69,80,66,54,29.93,29.79,13,5,13,0.00
2013-6-26,97,87,79,77,73,68,74,63,50,29.91,29.80,11,4,11,0.00
2013-7-22,85,84,84,75,74,74,74,71,70,29.91,29.90,0,0,0,0.00
2013-7-23,108,91,75,79,74,72,91,61,34,29.96,29.83,4,0,4,0.18